User: anonymous   Login
Location: Burgerwiesen
(48.6500°N, 15.6167°E)
Time: 17:59:54
(UTC+00:00)
Language:

STARLINK-1241 - Orbit

View from above orbital plane
View from above orbital plane
View from above satellite
View from above satellite

Ground track
Ground track

The orbit data is extracted from the following two-line orbital elements,

1 45195U 20012T   20185.50001157  .00008821  00000-0  62364-3 0  9997
2 45195  53.0011   2.4989 0001462 106.0136 106.2184 15.05588284 21133
Epoch (UTC): 03 July 2020 12:00:01
Eccentricity: 0.0001462
inclination: 53.0011°
perigee height: 548 km
apogee height: 551 km
right ascension of ascending node: 2.4989°
argument of perigee: 106.0136°
revolutions per day: 15.05588284
mean anomaly at epoch: 106.2184°
orbit number at epoch: 2113

The dashed part of the orbit path shows where the satellite is in the earth's shadow,  

DLR